Location: Chuathbaluk
(61.5726°N, 159.2454°W)
Time: 14:18:27
(UTC+00:00)

DELFI C3 - Pass Details

Date: 25 January 2021
Orbit: 531 x 550 km, 97.4° (Epoch: 04 March)

Event Time Altitude Azimuth Distance (km) Brightness Sun altitude
Exits shadow 04:01:01 16° 71° (ENE) 1,486 ? -11.0°
Maximum altitude 04:02:11 18° 49° (NE) 1,398 ? -11.1°
Drops below altitude 10° 04:04:54 10° 6° (N) 1,845 ? -11.4°
Sets 04:07:33 0° 348° (NNW) 2,744 ? -11.7°
